Location: Unspecified
(40.7945°N, 111.1337°W)
Time: 14:10:00
(UTC-06:00)

Altair - Pass Details

Date: 27 June 2019
Orbit: 1501 x 1683 km, 47.2° (Epoch: 20 July)

Event Time Altitude Azimuth Distance (km) Brightness Sun altitude
Rises 22:21:08 0° 276° (W) 4,715 10.9 -12.6°
Reaches altitude 10° 22:24:14 10° 280° (W) 3,755 10.4 -13.0°
Maximum altitude 22:33:41 60° 360° (N) 1,809 8.1 -14.2°
Drops below altitude 10° 22:43:30 10° 79° (E) 3,896 9.3 -15.4°
Sets 22:46:47 0° 83° (E) 4,901 9.8 -15.8°
